| time (UTC) | temp C | wind direction | speed KPH | gust KPH | rain 1hr cm | rain 24hr cm | rain mn cm | humidity % | barometer mb |
| 20260506232528 | 18 | 136 | 0.0 | 11.3 | 0.00 | 0.00 | 0.00 | 71 | 1019.0 |
| 20260506232027 | 18 | 275 | 1.6 | 11.3 | 0.00 | 0.00 | 0.00 | 70 | 1019.2 |
| 20260506231527 | 19 | 82 | 0.0 | 4.8 | 0.00 | 0.00 | 0.00 | 70 | 1019.2 |
| 20260506231027 | 19 | 110 | 0.0 | 11.3 | 0.00 | 0.00 | 0.00 | 70 | 1019.1 |
| 20260506230526 | 19 | 207 | 3.2 | 11.3 | 0.00 | 0.00 | 0.00 | 69 | 1019.2 |
| 20260506230028 | 19 | 91 | 1.6 | 6.4 | 0.00 | 0.00 | 0.00 | 70 | 1019.2 |
| 20260506225525 | 19 | 136 | 1.6 | 6.4 | 0.00 | 0.00 | 0.00 | 69 | 1019.3 |
| 20260506225025 | 19 | 81 | 1.6 | 6.4 | 0.00 | 0.00 | 0.00 | 69 | 1019.3 |
| 20260506224525 | 18 | 76 | 0.0 | 8.0 | 0.00 | 0.00 | 0.00 | 70 | 1019.5 |
| 20260506224023 | 18 | 97 | 1.6 | 8.0 | 0.00 | 0.00 | 0.00 | 70 | 1019.6 |
| 20260506223524 | 18 | 257 | 1.6 | 8.0 | 0.00 | 0.00 | 0.00 | 69 | 1019.6 |
| 20260506223024 | 19 | 80 | 0.0 | 11.3 | 0.00 | 0.00 | 0.00 | 69 | 1019.6 |
| 20260506222524 | 18 | 125 | 1.6 | 11.3 | 0.00 | 0.00 | 0.00 | 69 | 1019.6 |
| 20260506222024 | 19 | 112 | 1.6 | 9.7 | 0.00 | 0.00 | 0.00 | 68 | 1019.8 |
| 20260506221523 | 19 | 53 | 4.8 | 9.7 | 0.00 | 0.00 | 0.00 | 67 | 1019.8 |
| 20260506221023 | 19 | 123 | 1.6 | 9.7 | 0.00 | 0.00 | 0.00 | 67 | 1019.9 |
| 20260506220523 | 19 | 162 | 0.0 | 9.7 | 0.00 | 0.00 | 0.00 | 68 | 1020.0 |
| 20260506220023 | 19 | 45 | 1.6 | 9.7 | 0.00 | 0.00 | 0.00 | 67 | 1020.0 |
| 20260506215522 | 19 | 17 | 1.6 | 6.4 | 0.00 | 0.00 | 0.00 | 68 | 1020.0 |
| 20260506215022 | 19 | 32 | 0.0 | 8.0 | 0.00 | 0.00 | 0.00 | 69 | 1020.0 |
| 20260506214521 | 19 | 194 | 1.6 | 8.0 | 0.00 | 0.00 | 0.00 | 67 | 1020.1 |
| 20260506214024 | 19 | 294 | 1.6 | 11.3 | 0.00 | 0.00 | 0.00 | 68 | 1020.1 |
| 20260506213520 | 20 | 199 | 1.6 | 11.3 | 0.00 | 0.00 | 0.00 | 68 | 1020.1 |
| 20260506213020 | 19 | 128 | 0.0 | 9.7 | 0.00 | 0.00 | 0.00 | 68 | 1020.1 |
| 20260506212520 | 20 | 47 | 3.2 | 9.7 | 0.00 | 0.00 | 0.00 | 66 | 1020.3 |
| 20260506212020 | 20 | 48 | 1.6 | 8.0 | 0.00 | 0.00 | 0.00 | 68 | 1020.3 |
| 20260506211519 | 20 | 19 | 1.6 | 6.4 | 0.00 | 0.00 | 0.00 | 66 | 1020.2 |
| 20260506211018 | 20 | 29 | 1.6 | 6.4 | 0.00 | 0.00 | 0.00 | 68 | 1020.2 |
| 20260506210518 | 20 | 90 | 1.6 | 8.0 | 0.00 | 0.00 | 0.00 | 69 | 1020.3 |
| 20260506210017 | 20 | 91 | 1.6 | 8.0 | 0.00 | 0.00 | 0.00 | 67 | 1020.4 |
| 20260506205519 | 20 | 158 | 3.2 | 8.0 | 0.00 | 0.00 | 0.00 | 69 | 1020.4 |
| 20260506205117 | 19 | 121 | 0.0 | 8.0 | 0.00 | 0.00 | 0.00 | 71 | 1020.4 |
| 20260506204516 | 18 | 228 | 1.6 | 11.3 | 0.00 | 0.00 | 0.00 | 71 | 1020.5 |
| 20260506204015 | 18 | 248 | 1.6 | 11.3 | 0.00 | 0.00 | 0.00 | 69 | 1020.5 |
| 20260506203514 | 19 | 137 | 1.6 | 6.4 | 0.00 | 0.00 | 0.00 | 69 | 1020.6 |
| 20260506203014 | 18 | 101 | 0.0 | 8.0 | 0.00 | 0.00 | 0.00 | 69 | 1020.6 |
| 20260506202512 | 18 | 5 | 0.0 | 8.0 | 0.00 | 0.00 | 0.00 | 71 | 1020.6 |
| 20260506202011 | 18 | 126 | 3.2 | 8.0 | 0.00 | 0.00 | 0.00 | 70 | 1020.7 |
| 20260506201513 | 18 | 173 | 0.0 | 8.0 | 0.00 | 0.00 | 0.00 | 74 | 1020.7 |
| 20260506201009 | 18 | 215 | 1.6 | 8.0 | 0.00 | 0.00 | 0.00 | 74 | 1020.8 |
| 20260506200509 | 17 | 168 | 1.6 | 8.0 | 0.00 | 0.00 | 0.00 | 74 | 1020.9 |
| 20260506200011 | 17 | 170 | 3.2 | 6.4 | 0.00 | 0.00 | 0.00 | 73 | 1020.9 |
| 20260506195507 | 17 | 154 | 0.0 | 9.7 | 0.00 | 0.00 | 0.00 | 73 | 1020.9 |
| 20260506195007 | 17 | 197 | 3.2 | 9.7 | 0.00 | 0.00 | 0.00 | 73 | 1021.0 |
| 20260506194506 | 17 | 181 | 0.0 | 6.4 | 0.00 | 0.00 | 0.00 | 76 | 1020.9 |
| 20260506194006 | 17 | 141 | 0.0 | 9.7 | 0.00 | 0.00 | 0.00 | 75 | 1021.0 |
| 20260506193505 | 16 | 171 | 1.6 | 9.7 | 0.00 | 0.00 | 0.00 | 75 | 1021.1 |
| 20260506193005 | 17 | 187 | 1.6 | 9.7 | 0.00 | 0.00 | 0.00 | 73 | 1021.1 |
| 20260506192505 | 17 | 163 | 1.6 | 6.4 | 0.00 | 0.00 | 0.00 | 75 | 1021.2 |
| 20260506192005 | 17 | 144 | 0.0 | 4.8 | 0.00 | 0.00 | 0.00 | 76 | 1021.2 |
| 20260506191505 | 17 | 53 | 1.6 | 8.0 | 0.00 | 0.00 | 0.00 | 74 | 1021.2 |
| 20260506191005 | 17 | 153 | 1.6 | 8.0 | 0.00 | 0.00 | 0.00 | 73 | 1021.3 |
| 20260506190505 | 17 | 121 | 3.2 | 6.4 | 0.00 | 0.00 | 0.00 | 74 | 1021.3 |
| 20260506190006 | 17 | 134 | 0.0 | 6.4 | 0.00 | 0.00 | 0.00 | 73 | 1021.4 |
| 20260506185503 | 17 | 136 | 0.0 | 6.4 | 0.00 | 0.00 | 0.00 | 73 | 1021.3 |
| 20260506185004 | 17 | 46 | 1.6 | 8.0 | 0.00 | 0.00 | 0.00 | 74 | 1021.3 |
| 20260506184502 | 16 | 120 | 0.0 | 8.0 | 0.00 | 0.00 | 0.00 | 76 | 1021.2 |
| 20260506184101 | 16 | 202 | 1.6 | 8.0 | 0.00 | 0.00 | 0.00 | 74 | 1021.4 |
| 20260506183603 | 16 | 226 | 1.6 | 8.0 | 0.00 | 0.00 | 0.00 | 73 | 1021.3 |
| 20260506183108 | 17 | 72 | 0.0 | 3.2 | 0.00 | 0.00 | 0.00 | 77 | 1021.4 |
| 20260506182559 | 16 | 142 | 0.0 | 8.0 | 0.00 | 0.00 | 0.00 | 76 | 1021.4 |
| 20260506182101 | 16 | 138 | 0.0 | 8.0 | 0.00 | 0.00 | 0.00 | 76 | 1021.4 |
| 20260506181557 | 16 | 140 | 1.6 | 6.4 | 0.00 | 0.00 | 0.00 | 75 | 1021.3 |
| 20260506181056 | 16 | 159 | 0.0 | 4.8 | 0.00 | 0.00 | 0.00 | 78 | 1021.3 |
| 20260506180555 | 16 | 164 | 1.6 | 6.4 | 0.00 | 0.00 | 0.00 | 78 | 1021.3 |
| 20260506180054 | 15 | 176 | 0.0 | 6.4 | 0.00 | 0.00 | 0.00 | 79 | 1021.3 |
| 20260506175552 | 15 | 161 | 0.0 | 4.8 | 0.00 | 0.00 | 0.00 | 77 | 1021.3 |
| 20260506175052 | 15 | 180 | 0.0 | 4.8 | 0.00 | 0.00 | 0.00 | 78 | 1021.3 |
| 20260506174558 | 15 | 130 | 0.0 | 3.2 | 0.00 | 0.00 | 0.00 | 79 | 1021.3 |
| 20260506174051 | 15 | 183 | 0.0 | 3.2 | 0.00 | 0.00 | 0.00 | 78 | 1021.3 |
| 20260506173551 | 15 | 218 | 0.0 | 3.2 | 0.00 | 0.00 | 0.00 | 79 | 1021.3 |
| 20260506173111 | 15 | 203 | 0.0 | 8.0 | 0.00 | 0.00 | 0.00 | 80 | 1021.3 |
| 20260506172550 | 15 | 215 | 1.6 | 8.0 | 0.00 | 0.00 | 0.00 | 79 | 1021.4 |
| 20260506172050 | 15 | 182 | 1.6 | 11.3 | 0.00 | 0.00 | 0.00 | 79 | 1021.4 |
| 20260506171551 | 15 | 136 | 3.2 | 11.3 | 0.00 | 0.00 | 0.00 | 79 | 1021.4 |
| 20260506171048 | 15 | 140 | 1.6 | 6.4 | 0.00 | 0.00 | 0.00 | 80 | 1021.4 |
| 20260506170550 | 15 | 222 | 1.6 | 6.4 | 0.00 | 0.00 | 0.00 | 79 | 1021.5 |
| 20260506170047 | 15 | 99 | 0.0 | 3.2 | 0.00 | 0.00 | 0.00 | 82 | 1021.4 |
| 20260506165544 | 13 | 180 | 0.0 | 3.2 | 0.00 | 0.00 | 0.00 | 83 | 1021.4 |
| 20260506165043 | 13 | 193 | 0.0 | 6.4 | 0.00 | 0.00 | 0.00 | 84 | 1021.4 |
| 20260506164541 | 13 | 178 | 0.0 | 6.4 | 0.00 | 0.00 | 0.00 | 85 | 1021.4 |
| 20260506164039 | 13 | 164 | 3.2 | 8.0 | 0.00 | 0.00 | 0.00 | 84 | 1021.5 |
| 20260506163543 | 13 | 167 | 3.2 | 8.0 | 0.00 | 0.00 | 0.00 | 84 | 1021.4 |
| 20260506163044 | 13 | 200 | 0.0 | 3.2 | 0.00 | 0.00 | 0.00 | 85 | 1021.5 |
| 20260506162539 | 13 | 181 | 0.0 | 3.2 | 0.00 | 0.00 | 0.00 | 85 | 1021.4 |
| 20260506162038 | 13 | 184 | 0.0 | 4.8 | 0.00 | 0.00 | 0.00 | 85 | 1021.4 |
| 20260506161539 | 12 | 213 | 0.0 | 4.8 | 0.00 | 0.00 | 0.00 | 85 | 1021.5 |
| 20260506161041 | 12 | 178 | 1.6 | 8.0 | 0.00 | 0.00 | 0.00 | 85 | 1021.5 |
| 20260506160536 | 12 | 145 | 3.2 | 8.0 | 0.00 | 0.00 | 0.00 | 84 | 1021.4 |
| 20260506160037 | 12 | 205 | 0.0 | 3.2 | 0.00 | 0.00 | 0.00 | 85 | 1021.4 |
| 20260506155535 | 12 | 123 | 0.0 | 6.4 | 0.00 | 0.03 | 0.00 | 85 | 1021.5 |
| 20260506155034 | 12 | 144 | 1.6 | 6.4 | 0.00 | 0.03 | 0.00 | 85 | 1021.4 |
| 20260506154533 | 12 | 142 | 0.0 | 6.4 | 0.00 | 0.03 | 0.00 | 87 | 1021.4 |
| 20260506154031 | 12 | 142 | 0.0 | 6.4 | 0.00 | 0.03 | 0.00 | 87 | 1021.5 |
| 20260506153530 | 12 | 146 | 0.0 | 3.2 | 0.00 | 0.03 | 0.00 | 87 | 1021.5 |
| 20260506153040 | 12 | 146 | 0.0 | 3.2 | 0.00 | 0.03 | 0.00 | 87 | 1021.4 |
| 20260506152529 | 12 | 147 | 0.0 | 3.2 | 0.00 | 0.03 | 0.00 | 87 | 1021.4 |
| 20260506152031 | 12 | 146 | 0.0 | 4.8 | 0.00 | 0.03 | 0.00 | 87 | 1021.4 |
| 20260506151529 | 12 | 140 | 0.0 | 4.8 | 0.00 | 0.03 | 0.00 | 87 | 1021.4 |
| 20260506151030 | 12 | 138 | 0.0 | 3.2 | 0.00 | 0.03 | 0.00 | 88 | 1021.4 |
| 20260506150528 | 11 | 152 | 0.0 | 0.0 | 0.00 | 0.03 | 0.00 | 89 | 1021.4 |
| 20260506150027 | 11 | 152 | 0.0 | 0.0 | 0.00 | 0.03 | 0.00 | 89 | 1021.4 |
| 20260506145529 | 11 | 152 | 0.0 | 0.0 | 0.00 | 0.03 | 0.00 | 90 | 1021.4 |
| 20260506145025 | 11 | 153 | 0.0 | 0.0 | 0.00 | 0.03 | 0.00 | 91 | 1021.4 |
| 20260506144536 | 11 | 152 | 0.0 | 0.0 | 0.00 | 0.03 | 0.00 | 92 | 1021.3 |
| 20260506144021 | 11 | 152 | 0.0 | 0.0 | 0.00 | 0.03 | 0.00 | 92 | 1021.3 |
| 20260506143521 | 11 | 153 | 0.0 | 0.0 | 0.00 | 0.03 | 0.00 | 92 | 1021.2 |
| 20260506143019 | 11 | 153 | 0.0 | 0.0 | 0.00 | 0.03 | 0.00 | 92 | 1021.1 |
| 20260506142517 | 10 | 360 | 0.0 | 0.0 | 0.00 | 0.03 | 0.00 | 92 | 1021.2 |
| 20260506142016 | 10 | 171 | 0.0 | 0.0 | 0.00 | 0.03 | 0.00 | 92 | 1021.2 |
| 20260506141515 | 10 | 160 | 0.0 | 0.0 | 0.00 | 0.03 | 0.00 | 92 | 1021.0 |
| 20260506141019 | 10 | 150 | 0.0 | 0.0 | 0.00 | 0.03 | 0.00 | 92 | 1020.9 |
| 20260506140515 | 10 | 150 | 0.0 | 0.0 | 0.00 | 0.03 | 0.00 | 93 | 1021.0 |
| 20260506140014 | 10 | 149 | 0.0 | 0.0 | 0.00 | 0.03 | 0.00 | 92 | 1020.8 |
| 20260506135512 | 10 | 149 | 0.0 | 0.0 | 0.00 | 0.03 | 0.00 | 92 | 1020.7 |
| 20260506135016 | 10 | 149 | 0.0 | 0.0 | 0.00 | 0.03 | 0.00 | 92 | 1020.7 |
| 20260506134511 | 10 | 149 | 0.0 | 0.0 | 0.00 | 0.03 | 0.00 | 92 | 1020.7 |
| 20260506134010 | 10 | 149 | 0.0 | 0.0 | 0.00 | 0.03 | 0.00 | 92 | 1020.6 |
| 20260506133509 | 10 | 149 | 0.0 | 0.0 | 0.00 | 0.03 | 0.00 | 92 | 1020.6 |
| 20260506133008 | 10 | 149 | 0.0 | 0.0 | 0.00 | 0.03 | 0.00 | 92 | 1020.6 |
| 20260506132510 | 10 | 149 | 0.0 | 0.0 | 0.00 | 0.03 | 0.00 | 91 | 1020.6 |
| 20260506132007 | 10 | 149 | 0.0 | 0.0 | 0.00 | 0.03 | 0.00 | 91 | 1020.6 |
| 20260506131508 | 10 | 149 | 0.0 | 0.0 | 0.00 | 0.03 | 0.00 | 91 | 1020.6 |
| 20260506131007 | 10 | 149 | 0.0 | 0.0 | 0.00 | 0.03 | 0.00 | 91 | 1020.5 |
| 20260506130506 | 10 | 149 | 0.0 | 0.0 | 0.00 | 0.03 | 0.00 | 91 | 1020.6 |
| 20260506130006 | 10 | 149 | 0.0 | 0.0 | 0.00 | 0.03 | 0.00 | 91 | 1020.5 |
| 20260506125505 | 10 | 149 | 0.0 | 0.0 | 0.00 | 0.03 | 0.00 | 91 | 1020.4 |
| 20260506125004 | 10 | 149 | 0.0 | 0.0 | 0.00 | 0.03 | 0.00 | 91 | 1020.5 |
| 20260506124504 | 10 | 149 | 0.0 | 0.0 | 0.00 | 0.03 | 0.00 | 91 | 1020.4 |
| 20260506124003 | 10 | 149 | 0.0 | 0.0 | 0.00 | 0.03 | 0.00 | 91 | 1020.3 |
| 20260506123503 | 10 | 149 | 0.0 | 0.0 | 0.00 | 0.03 | 0.00 | 91 | 1020.4 |
| 20260506123003 | 10 | 149 | 0.0 | 0.0 | 0.00 | 0.03 | 0.00 | 91 | 1020.3 |
| 20260506122502 | 10 | 149 | 0.0 | 0.0 | 0.00 | 0.03 | 0.00 | 91 | 1020.4 |
| 20260506122001 | 10 | 149 | 0.0 | 0.0 | 0.00 | 0.03 | 0.00 | 91 | 1020.4 |
| 20260506121602 | 10 | 149 | 0.0 | 0.0 | 0.00 | 0.03 | 0.00 | 91 | 1020.3 |
| 20260506121100 | 10 | 149 | 0.0 | 0.0 | 0.00 | 0.03 | 0.00 | 91 | 1020.2 |
| 20260506121001 | 10 | 149 | 0.0 | 0.0 | 0.00 | 0.03 | 0.00 | 91 | 1020.3 |
| 20260506120601 | 10 | 149 | 0.0 | 0.0 | 0.00 | 0.03 | 0.00 | 91 | 1020.4 |
| 20260506120105 | 10 | 149 | 0.0 | 0.0 | 0.00 | 0.03 | 0.00 | 90 | 1020.3 |
| 20260506115600 | 10 | 149 | 0.0 | 0.0 | 0.00 | 0.05 | 0.00 | 91 | 1020.3 |
| 20260506115058 | 10 | 149 | 0.0 | 0.0 | 0.00 | 0.05 | 0.00 | 91 | 1020.1 |
| 20260506114606 | 10 | 149 | 0.0 | 0.0 | 0.00 | 0.05 | 0.00 | 91 | 1020.2 |
| 20260506114058 | 10 | 149 | 0.0 | 0.0 | 0.00 | 0.05 | 0.00 | 91 | 1020.1 |
| 20260506113556 | 10 | 149 | 0.0 | 0.0 | 0.00 | 0.05 | 0.00 | 91 | 1020.0 |
| 20260506113058 | 10 | 149 | 0.0 | 0.0 | 0.00 | 0.05 | 0.00 | 91 | 1020.0 |
| 20260506112556 | 10 | 149 | 0.0 | 0.0 | 0.00 | 0.05 | 0.00 | 91 | 1019.9 |
| 20260506112055 | 10 | 149 | 0.0 | 0.0 | 0.00 | 0.05 | 0.00 | 91 | 1019.9 |
| 20260506111555 | 10 | 149 | 0.0 | 0.0 | 0.00 | 0.05 | 0.00 | 91 | 1019.9 |
| 20260506111055 | 10 | 149 | 0.0 | 0.0 | 0.00 | 0.05 | 0.00 | 91 | 1019.8 |
| 20260506110555 | 10 | 149 | 0.0 | 0.0 | 0.00 | 0.05 | 0.00 | 91 | 1019.9 |
| 20260506110055 | 10 | 149 | 0.0 | 0.0 | 0.00 | 0.05 | 0.00 | 91 | 1019.8 |
| 20260506105554 | 10 | 149 | 0.0 | 0.0 | 0.00 | 0.05 | 0.00 | 91 | 1019.8 |
| 20260506105056 | 10 | 149 | 0.0 | 0.0 | 0.00 | 0.05 | 0.00 | 91 | 1019.9 |
| 20260506104600 | 10 | 149 | 0.0 | 0.0 | 0.00 | 0.05 | 0.00 | 91 | 1019.8 |
| 20260506104053 | 10 | 149 | 0.0 | 0.0 | 0.00 | 0.05 | 0.00 | 91 | 1019.8 |
| 20260506103553 | 10 | 149 | 0.0 | 0.0 | 0.00 | 0.05 | 0.00 | 91 | 1019.8 |
| 20260506103055 | 10 | 149 | 0.0 | 0.0 | 0.00 | 0.05 | 0.00 | 91 | 1019.7 |
| 20260506102551 | 10 | 149 | 0.0 | 0.0 | 0.00 | 0.05 | 0.00 | 91 | 1019.8 |
| 20260506102054 | 10 | 149 | 0.0 | 0.0 | 0.00 | 0.05 | 0.00 | 91 | 1019.7 |
| 20260506101552 | 10 | 149 | 0.0 | 0.0 | 0.00 | 0.05 | 0.00 | 92 | 1019.7 |
| 20260506101052 | 10 | 149 | 0.0 | 0.0 | 0.00 | 0.05 | 0.00 | 92 | 1019.8 |
| 20260506100551 | 10 | 149 | 0.0 | 0.0 | 0.00 | 0.05 | 0.00 | 92 | 1019.6 |
| 20260506100105 | 10 | 149 | 0.0 | 0.0 | 0.00 | 0.05 | 0.00 | 92 | 1019.8 |
| 20260506095551 | 10 | 149 | 0.0 | 0.0 | 0.00 | 0.08 | 0.00 | 92 | 1019.7 |
| 20260506095051 | 10 | 149 | 0.0 | 0.0 | 0.00 | 0.08 | 0.00 | 92 | 1019.8 |
| 20260506094600 | 10 | 149 | 0.0 | 0.0 | 0.00 | 0.08 | 0.00 | 92 | 1019.8 |
| 20260506094049 | 10 | 149 | 0.0 | 0.0 | 0.00 | 0.08 | 0.00 | 92 | 1019.8 |
| 20260506093549 | 10 | 149 | 0.0 | 0.0 | 0.00 | 0.08 | 0.00 | 92 | 1019.8 |
| 20260506093049 | 10 | 149 | 0.0 | 0.0 | 0.00 | 0.08 | 0.00 | 92 | 1019.7 |
| 20260506092548 | 10 | 149 | 0.0 | 0.0 | 0.00 | 0.08 | 0.00 | 92 | 1019.8 |
| 20260506092048 | 10 | 149 | 0.0 | 0.0 | 0.00 | 0.08 | 0.00 | 92 | 1019.8 |
| 20260506091548 | 10 | 149 | 0.0 | 0.0 | 0.00 | 0.08 | 0.00 | 91 | 1019.8 |
| 20260506091046 | 10 | 149 | 0.0 | 0.0 | 0.00 | 0.08 | 0.00 | 91 | 1019.6 |
| 20260506090546 | 10 | 149 | 0.0 | 0.0 | 0.00 | 0.08 | 0.00 | 91 | 1019.7 |
| 20260506090045 | 10 | 149 | 0.0 | 0.0 | 0.00 | 0.08 | 0.00 | 91 | 1019.6 |
| 20260506085545 | 10 | 149 | 0.0 | 0.0 | 0.00 | 0.18 | 0.00 | 91 | 1019.6 |
| 20260506085049 | 10 | 149 | 0.0 | 0.0 | 0.00 | 0.18 | 0.00 | 91 | 1019.7 |
| 20260506084549 | 10 | 149 | 0.0 | 0.0 | 0.00 | 0.18 | 0.00 | 91 | 1019.7 |
| 20260506084043 | 10 | 149 | 0.0 | 0.0 | 0.00 | 0.18 | 0.00 | 91 | 1019.7 |
| 20260506083543 | 10 | 149 | 0.0 | 0.0 | 0.00 | 0.18 | 0.00 | 91 | 1019.7 |
| 20260506083046 | 10 | 149 | 0.0 | 0.0 | 0.00 | 0.18 | 0.00 | 91 | 1019.7 |
| 20260506082542 | 10 | 149 | 0.0 | 0.0 | 0.00 | 0.18 | 0.00 | 91 | 1019.7 |
| 20260506082041 | 10 | 149 | 0.0 | 0.0 | 0.00 | 0.18 | 0.00 | 90 | 1019.7 |
| 20260506081559 | 10 | 149 | 0.0 | 0.0 | 0.00 | 0.18 | 0.00 | 90 | 1019.8 |
| 20260506081040 | 10 | 149 | 0.0 | 0.0 | 0.00 | 0.18 | 0.00 | 90 | 1019.8 |
| 20260506080542 | 10 | 149 | 0.0 | 0.0 | 0.00 | 0.18 | 0.00 | 90 | 1019.8 |
| 20260506073037 | 11 | 149 | 0.0 | 0.0 | 0.00 | 0.30 | 0.00 | 90 | 1019.5 |
| 20260506072534 | 11 | 149 | 0.0 | 0.0 | 0.00 | 0.30 | 0.00 | 90 | 1019.6 |
| 20260506072034 | 11 | 149 | 0.0 | 1.6 | 0.00 | 0.30 | 0.00 | 90 | 1019.5 |
| 20260506071531 | 11 | 149 | 0.0 | 3.2 | 0.00 | 0.30 | 0.00 | 91 | 1019.4 |
| 20260506071031 | 11 | 148 | 0.0 | 4.8 | 0.00 | 0.30 | 0.00 | 91 | 1019.5 |
| 20260506070528 | 11 | 148 | 1.6 | 4.8 | 0.00 | 0.30 | 0.00 | 91 | 1019.4 |
| 20260506062023 | 11 | 157 | 1.6 | 4.8 | 0.00 | 0.36 | 0.30 | 92 | 1019.0 |
| 20260506061523 | 11 | 157 | 0.0 | 3.2 | 0.00 | 0.36 | 0.30 | 92 | 1019.1 |
| 20260506061023 | 11 | 157 | 0.0 | 3.2 | 0.00 | 0.36 | 0.30 | 92 | 1019.1 |
| 20260506060523 | 11 | 157 | 0.0 | 3.2 | 0.00 | 0.36 | 0.30 | 92 | 1019.1 |
| 20260506051019 | 11 | 159 | 0.0 | 3.2 | 0.00 | 0.41 | 0.30 | 91 | 1018.8 |
| 20260506050518 | 11 | 159 | 0.0 | 3.2 | 0.00 | 0.41 | 0.30 | 91 | 1018.9 |
| 20260506045017 | 11 | 159 | 0.0 | 3.2 | 0.00 | 0.48 | 0.30 | 90 | 1018.7 |
| 20260506044517 | 11 | 159 | 0.0 | 3.2 | 0.00 | 0.48 | 0.30 | 90 | 1018.5 |
| 20260506044015 | 11 | 159 | 0.0 | 3.2 | 0.00 | 0.48 | 0.30 | 90 | 1018.5 |
| 20260506043516 | 11 | 159 | 0.0 | 3.2 | 0.00 | 0.48 | 0.30 | 89 | 1018.4 |
| 20260506043014 | 11 | 159 | 0.0 | 3.2 | 0.00 | 0.48 | 0.30 | 89 | 1018.3 |
| 20260506042514 | 11 | 159 | 0.0 | 3.2 | 0.00 | 0.48 | 0.30 | 88 | 1018.2 |
| 20260506042018 | 11 | 159 | 0.0 | 3.2 | 0.00 | 0.48 | 0.30 | 88 | 1018.2 |
| 20260506041512 | 11 | 159 | 0.0 | 3.2 | 0.00 | 0.48 | 0.30 | 88 | 1018.2 |
| 20260506041018 | 11 | 159 | 0.0 | 0.0 | 0.00 | 0.48 | 0.30 | 87 | 1018.1 |
| 20260506040512 | 11 | 159 | 0.0 | 0.0 | 0.00 | 0.48 | 0.30 | 87 | 1018.1 |
| 20260506040012 | 11 | 159 | 0.0 | 0.0 | 0.00 | 0.48 | 0.30 | 87 | 1018.0 |
| 20260506035511 | 11 | 159 | 0.0 | 3.2 | 0.00 | 0.48 | 0.30 | 87 | 1017.9 |
| 20260506035011 | 11 | 159 | 0.0 | 3.2 | 0.00 | 0.48 | 0.30 | 87 | 1017.8 |
| 20260506034509 | 11 | 148 | 0.0 | 3.2 | 0.00 | 0.48 | 0.30 | 87 | 1017.7 |
| 20260506034011 | 11 | 163 | 0.0 | 4.8 | 0.00 | 0.48 | 0.30 | 87 | 1017.7 |
| 20260506033514 | 11 | 163 | 0.0 | 4.8 | 0.00 | 0.48 | 0.30 | 87 | 1017.6 |
| 20260506033008 | 11 | 183 | 0.0 | 3.2 | 0.00 | 0.48 | 0.30 | 86 | 1017.6 |
| 20260506032507 | 11 | 211 | 0.0 | 3.2 | 0.00 | 0.48 | 0.30 | 86 | 1017.4 |
| 20260506032006 | 11 | 360 | 0.0 | 3.2 | 0.00 | 0.48 | 0.30 | 86 | 1017.4 |
| 20260506031509 | 12 | 230 | 0.0 | 8.0 | 0.00 | 0.48 | 0.30 | 86 | 1017.3 |
| 20260506031006 | 12 | 138 | 0.0 | 8.0 | 0.00 | 0.48 | 0.30 | 85 | 1017.3 |
| 20260506030506 | 12 | 141 | 0.0 | 3.2 | 0.00 | 0.48 | 0.30 | 86 | 1017.2 |
| 20260506030006 | 12 | 139 | 0.0 | 6.4 | 0.00 | 0.48 | 0.30 | 86 | 1017.1 |
| 20260506025506 | 12 | 360 | 0.0 | 6.4 | 0.00 | 0.48 | 0.30 | 85 | 1017.1 |
| 20260506025008 | 12 | 178 | 0.0 | 1.6 | 0.00 | 0.48 | 0.30 | 86 | 1017.0 |
| 20260506024507 | 12 | 360 | 0.0 | 3.2 | 0.00 | 0.48 | 0.30 | 85 | 1017.2 |
| 20260506024004 | 12 | 360 | 0.0 | 3.2 | 0.00 | 0.48 | 0.30 | 85 | 1017.1 |
| 20260506023505 | 12 | 360 | 0.0 | 3.2 | 0.00 | 0.48 | 0.30 | 85 | 1017.1 |
| 20260506023106 | 12 | 360 | 0.0 | 3.2 | 0.00 | 0.48 | 0.30 | 84 | 1017.1 |
| 20260506022502 | 12 | 360 | 0.0 | 4.8 | 0.00 | 0.48 | 0.30 | 84 | 1017.0 |
| 20260506022004 | 12 | 360 | 0.0 | 4.8 | 0.00 | 0.48 | 0.30 | 84 | 1016.8 |
| 20260506021502 | 12 | 360 | 0.0 | 4.8 | 0.00 | 0.48 | 0.30 | 84 | 1016.8 |
| 20260506021002 | 12 | 130 | 0.0 | 4.8 | 0.00 | 0.48 | 0.30 | 84 | 1016.8 |
| 20260506020501 | 12 | 128 | 0.0 | 4.8 | 0.00 | 0.48 | 0.30 | 83 | 1016.7 |
| 20260506020002 | 12 | 148 | 0.0 | 4.8 | 0.00 | 0.48 | 0.30 | 83 | 1016.6 |
| 20260506015503 | 12 | 360 | 1.6 | 4.8 | 0.00 | 0.48 | 0.30 | 82 | 1016.7 |
| 20260506015104 | 12 | 157 | 0.0 | 3.2 | 0.00 | 0.48 | 0.30 | 82 | 1016.6 |
| 20260506014601 | 12 | 360 | 0.0 | 4.8 | 0.00 | 0.48 | 0.30 | 83 | 1016.6 |
| 20260506014000 | 12 | 360 | 0.0 | 8.0 | 0.00 | 0.48 | 0.30 | 82 | 1016.5 |
| 20260506013600 | 12 | 360 | 1.6 | 8.0 | 0.00 | 0.48 | 0.30 | 82 | 1016.5 |
| 20260506013111 | 13 | 360 | 1.6 | 8.0 | 0.00 | 0.48 | 0.30 | 82 | 1016.5 |
| 20260506012600 | 13 | 139 | 0.0 | 6.4 | 0.00 | 0.48 | 0.30 | 83 | 1016.6 |
| 20260506012104 | 13 | 138 | 1.6 | 6.4 | 0.00 | 0.48 | 0.30 | 83 | 1016.5 |
| 20260506011602 | 13 | 138 | 0.0 | 6.4 | 0.00 | 0.48 | 0.30 | 83 | 1016.6 |
| 20260506011059 | 13 | 147 | 0.0 | 4.8 | 0.00 | 0.48 | 0.30 | 83 | 1016.6 |
| 20260506010559 | 13 | 143 | 0.0 | 4.8 | 0.00 | 0.48 | 0.30 | 83 | 1016.6 |
| 20260506010120 | 13 | 159 | 0.0 | 6.4 | 0.00 | 0.48 | 0.30 | 83 | 1016.6 |
| 20260506005600 | 13 | 178 | 0.0 | 6.4 | 0.00 | 0.48 | 0.30 | 83 | 1016.6 |
| 20260506005101 | 13 | 188 | 1.6 | 6.4 | 0.00 | 0.48 | 0.30 | 82 | 1016.5 |
| 20260506004601 | 13 | 119 | 0.0 | 1.6 | 0.00 | 0.48 | 0.30 | 84 | 1016.6 |
| 20260506004058 | 13 | 119 | 0.0 | 6.4 | 0.00 | 0.48 | 0.30 | 83 | 1016.5 |
| 20260506003558 | 13 | 141 | 0.0 | 6.4 | 0.00 | 0.48 | 0.30 | 83 | 1016.6 |
| 20260506003119 | 13 | 141 | 1.6 | 6.4 | 0.00 | 0.48 | 0.30 | 82 | 1016.5 |
| 20260506002557 | 13 | 121 | 0.0 | 4.8 | 0.00 | 0.48 | 0.30 | 83 | 1016.4 |
| 20260506002059 | 13 | 155 | 1.6 | 3.2 | 0.00 | 0.48 | 0.30 | 84 | 1016.4 |
| 20260506001603 | 13 | 142 | 0.0 | 4.8 | 0.00 | 0.48 | 0.30 | 85 | 1016.4 |
| 20260506001057 | 13 | 142 | 0.0 | 4.8 | 0.00 | 0.48 | 0.30 | 85 | 1016.3 |
| 20260506000557 | 13 | 112 | 0.0 | 3.2 | 0.00 | 0.48 | 0.30 | 84 | 1016.4 |
| 20260506000057 | 13 | 112 | 0.0 | 3.2 | 0.00 | 0.48 | 0.30 | 85 | 1016.4 |
| 20260505235556 | 13 | 111 | 0.0 | 3.2 | 0.00 | 0.48 | 0.30 | 86 | 1016.4 |
| 20260505235057 | 13 | 162 | 0.0 | 3.2 | 0.00 | 0.48 | 0.30 | 84 | 1016.4 |
| 20260505234557 | 13 | 76 | 0.0 | 3.2 | 0.00 | 0.48 | 0.30 | 85 | 1016.4 |
| 20260505234100 | 13 | 144 | 0.0 | 3.2 | 0.00 | 0.48 | 0.30 | 84 | 1016.4 |
| 20260505233556 | 13 | 148 | 0.0 | 0.0 | 0.00 | 0.48 | 0.30 | 85 | 1016.4 |
| 20260505233106 | 13 | 150 | 0.0 | 0.0 | 0.00 | 0.48 | 0.30 | 85 | 1016.4 |
| 20260505232555 | 13 | 151 | 0.0 | 0.0 | 0.00 | 0.48 | 0.30 | 86 | 1016.4 |